Weather History for KAVX - October, 2012

Change the Weather History Date:

Sunday, October 21, 2012

  Actual Average Record
Temperature  
Mean Temperature 58 °F -  
Max Temperature 62 °F 67 °F 93 °F (2003)
Min Temperature 55 °F 54 °F 50 °F (2005)
Degree Days  
Heating Degree Days 7    
Growing Degree Days 8 (Base 50)    
Moisture  
Dew Point 56 °F    
Average Humidity 95    
Maximum Humidity 100    
Minimum Humidity 87    
Precipitation  
Precipitation 0.06 in - - ()
Sea Level Pressure  
Sea Level Pressure 29.91 in    
Wind  
Wind Speed 3 mph (WSW)    
Max Wind Speed 10 mph    
Max Gust Speed -    
Visibility 4 miles    
Events Fog , Rain    
Averages and records for this station are not official NWS values.
T = Trace of Precipitation, MM = Missing Value Source: NWS Daily Summary

Daily Weather History Graph

Daily Weather History Graph

Search for Another Location

Airport or City:

Trip Planner

Search our weather history database for the weather conditions in past years. The results will help you decide how hot, cold, wet, or windy it might be!

Date:

Astronomy

Oct. 21, 2012 Rise Set
Actual Time 7:03 AM PDT 6:12 PM PDT
Civil Twilight 6:38 AM PDT 6:37 PM PDT
Nautical Twilight 6:09 AM PDT 7:06 PM PDT
Astronomical Twilight 5:40 AM PDT 7:35 PM PDT
Moon 1:22 PM PDT (10/21) No Moon Set
Length of Visible Light 11h 59m
Length of Day
11h 08m
Waxing Crescent, 46% of the Moon is Illuminated
Oct 21
Waxing Crescent
Oct 21
First Quarter
Oct 29
Full
Nov 6
Last Quarter
Nov 13
New

Hourly Weather History & Observations

Time (PDT) Temp. Dew Point Humidity Pressure Visibility Wind Dir Wind Speed Gust Speed Precip Events Conditions
12:02 AM 57.2 °F 57.2 °F 100% 29.90 in 2.5 mi SE 3.5 mph - N/A   Overcast
12:05 AM 57.2 °F 57.2 °F 100% 29.90 in 6.0 mi SE 3.5 mph - N/A   Overcast
12:51 AM 57.9 °F 57.0 °F 97% 29.87 in 10.0 mi Calm Calm - N/A   Overcast
1:16 AM 57.2 °F 57.2 °F 100% 29.90 in 10.0 mi Calm Calm - N/A   Overcast
1:34 AM 57.2 °F 57.2 °F 100% 29.90 in 10.0 mi Calm Calm - N/A   Overcast
1:51 AM 57.9 °F 55.9 °F 93% 29.88 in 10.0 mi Calm Calm - N/A   Overcast
3:51 AM 57.9 °F 55.9 °F 93% 29.85 in 10.0 mi Calm Calm - N/A   Overcast
4:51 AM 59.0 °F 55.9 °F 90% 29.85 in 10.0 mi Calm Calm - N/A   Overcast
5:06 AM 59.0 °F 55.4 °F 88% 29.88 in 10.0 mi Calm Calm - N/A   Overcast
5:11 AM 57.2 °F 57.2 °F 100% 29.88 in 0.8 mi Calm Calm - N/A   Overcast
5:26 AM 57.2 °F 57.2 °F 100% 29.89 in 1.2 mi Calm Calm - N/A   Overcast
5:29 AM 57.2 °F 55.4 °F 94% 29.89 in 3.0 mi Calm Calm - N/A   Overcast
5:51 AM 59.0 °F 55.0 °F 87% 29.86 in 8.0 mi Calm Calm - N/A   Overcast
5:53 AM 59.0 °F 55.4 °F 88% 29.89 in 1.5 mi WSW 5.8 mph - N/A   Overcast
5:55 AM 57.2 °F 55.4 °F 94% 29.89 in 0.8 mi WSW 3.5 mph - N/A   Overcast
6:06 AM 57.2 °F 57.2 °F 100% 29.90 in 0.5 mi WSW 4.6 mph - N/A Fog Fog
6:14 AM 57.2 °F 57.2 °F 100% 29.90 in 1.2 mi WSW 3.5 mph - N/A   Overcast
6:27 AM 57.2 °F 57.2 °F 100% 29.90 in 1.0 mi WSW 3.5 mph - N/A   Overcast
6:30 AM 57.2 °F 57.2 °F 100% 29.90 in 0.8 mi WSW 5.8 mph - N/A   Overcast
6:44 AM 57.2 °F 57.2 °F 100% 29.90 in 0.5 mi WSW 4.6 mph - N/A Fog Fog
6:51 AM 57.9 °F 57.0 °F 97% 29.88 in 0.5 mi WSW 3.5 mph - N/A Fog Fog
6:55 AM 57.2 °F 57.2 °F 100% 29.91 in 1.5 mi WSW 4.6 mph - N/A   Overcast
6:58 AM 57.2 °F 57.2 °F 100% 29.91 in 3.0 mi WSW 4.6 mph - N/A   Overcast
7:18 AM 57.2 °F 57.2 °F 100% 29.91 in 2.5 mi Calm Calm - N/A   Overcast
7:20 AM 57.2 °F 57.2 °F 100% 29.91 in 1.0 mi WSW 3.5 mph - 0.00 in Rain Light Rain
7:23 AM 57.2 °F 57.2 °F 100% 29.91 in 0.8 mi Calm Calm - 0.00 in Rain Light Rain
7:31 AM 57.2 °F 57.2 °F 100% 29.91 in 1.2 mi Calm Calm - 0.00 in Rain Light Rain
7:34 AM 57.2 °F 57.2 °F 100% 29.91 in 0.8 mi Calm Calm - 0.00 in Rain Light Rain
7:45 AM 57.2 °F 57.2 °F 100% 29.91 in 2.5 mi Calm Calm - 0.00 in   Overcast
7:51 AM 57.9 °F 57.0 °F 97% 29.89 in 5.0 mi Calm Calm - 0.00 in   Overcast
8:09 AM 57.2 °F 57.2 °F 100% 29.92 in 6.0 mi WSW 3.5 mph - N/A   Overcast
8:35 AM 59.0 °F 57.2 °F 94% 29.93 in 10.0 mi West 3.5 mph - N/A   Overcast
8:49 AM 59.0 °F 57.2 °F 94% 29.93 in 10.0 mi Calm Calm - N/A   Overcast
8:51 AM 59.0 °F 57.0 °F 93% 29.91 in 10.0 mi Calm Calm - N/A   Overcast
9:15 AM 59.0 °F 57.2 °F 94% 29.95 in 5.0 mi West 3.5 mph - 0.00 in Rain Light Rain
9:22 AM 60.8 °F 57.2 °F 88% 29.94 in 8.0 mi Calm Calm - 0.00 in   Overcast
9:33 AM 60.8 °F 57.2 °F 88% 29.95 in 2.5 mi Calm Calm - 0.00 in   Overcast
9:45 AM 60.8 °F 57.2 °F 88% 29.95 in 4.0 mi WNW 3.5 mph - 0.00 in Rain Light Rain
9:51 AM 60.1 °F 57.9 °F 93% 29.92 in 5.0 mi West 3.5 mph - 0.00 in Rain Light Rain
9:59 AM 60.8 °F 57.2 °F 88% 29.95 in 1.0 mi Calm Calm - 0.00 in Rain Light Rain
10:06 AM 59.0 °F 57.2 °F 94% 29.95 in 0.2 mi NW 5.8 mph - 0.01 in Fog , Rain Rain
10:51 AM 59.0 °F 57.9 °F 96% 29.92 in 0.2 mi NW 6.9 mph - 0.04 in Fog , Rain Light Rain
11:51 AM 59.0 °F 57.9 °F 96% 29.92 in 0.2 mi NW 6.9 mph - 0.02 in Fog Fog
12:51 PM 59.0 °F 59.0 °F 100% 29.91 in 0.2 mi West 10.4 mph - N/A Fog Fog
1:31 PM 60.8 °F 59.0 °F 94% 29.92 in 1.5 mi WSW 5.8 mph - N/A   Overcast
1:33 PM 59.0 °F 57.2 °F 94% 29.92 in 3.0 mi West 6.9 mph - N/A   Overcast
1:51 PM 60.1 °F 59.0 °F 96% 29.88 in 7.0 mi West 6.9 mph - N/A   Overcast
2:51 PM 61.0 °F 57.0 °F 87% 29.88 in 10.0 mi WSW 6.9 mph - N/A   Overcast
3:36 PM 59.0 °F 57.2 °F 94% 29.91 in 5.0 mi WSW 9.2 mph - N/A   Overcast
4:14 PM 57.2 °F 55.4 °F 94% 29.91 in 1.5 mi WSW 10.4 mph - N/A   Overcast
4:22 PM 57.2 °F 55.4 °F 94% 29.91 in 1.0 mi WSW 10.4 mph - N/A   Overcast
4:25 PM 57.2 °F 55.4 °F 94% 29.91 in 2.0 mi WSW 10.4 mph - N/A   Overcast
4:33 PM 57.2 °F 55.4 °F 94% 29.91 in 3.0 mi WSW 10.4 mph - N/A   Overcast
4:43 PM 57.2 °F 55.4 °F 94% 29.91 in 1.8 mi WSW 10.4 mph - N/A   Overcast
4:51 PM 57.0 °F 55.9 °F 96% 29.88 in 1.2 mi WSW 10.4 mph - N/A   Overcast
5:04 PM 57.2 °F 55.4 °F 94% 29.91 in 3.0 mi WSW 10.4 mph - N/A   Overcast
5:51 PM 57.0 °F 54.0 °F 89% 29.88 in 4.0 mi SW 9.2 mph - N/A   Overcast
6:51 PM 55.0 °F 53.1 °F 93% 29.89 in 7.0 mi SW 5.8 mph - N/A   Mostly Cloudy
7:33 PM 55.4 °F 53.6 °F 94% 29.92 in 7.0 mi WSW 6.9 mph - N/A   Scattered Clouds
8:03 PM 55.4 °F 53.6 °F 94% 29.93 in 7.0 mi SW 6.9 mph - N/A   Scattered Clouds
8:14 PM 55.4 °F 53.6 °F 94% 29.93 in 6.0 mi SW 6.9 mph - N/A   Mostly Cloudy
8:25 PM 55.4 °F 53.6 °F 94% 29.93 in 6.0 mi SW 5.8 mph - N/A   Scattered Clouds
8:51 PM 55.0 °F 53.1 °F 93% 29.91 in 6.0 mi SW 6.9 mph - N/A   Partly Cloudy
10:51 PM 55.0 °F 53.1 °F 93% 29.92 in 7.0 mi SW 9.2 mph - N/A   Overcast